Regional Weather Roundup
Issued by NWS Jackson, KY

Home | Current Version | Previous Version | Graphics & Text | Print | Product List | Glossary On
Versions: 1 2 3 4 5 6 7 8 9 10 11 12 13 14 15 16 17 18 19 20 21 22 23 24 25 26 27
000
ASUS43 KJKL 260310
RWRJKL

EAST KENTUCKY HOURLY WEATHER ROUNDUP
NATIONAL WEATHER SERVICE JACKSON KY
1100 PM EDT SUN JUN 25 2017

NOTE: "FAIR" INDICATES FEW OR NO CLOUDS BELOW 12,000 FEET WITH
NO SIGNIFICANT WEATHER AND/OR OBSTRUCTIONS TO VISIBILITY.

* THESE REPORTS ARE NOT UNDER NWS QUALITY CONTROL AND MAY NOT
  REPORT WEATHER SUCH AS PRECIPITATION AND FOG.

KYZ079-080-083-085-087-088-110-112-115-119-120-260400
...EASTERN KENTUCKY...

CITY           SKY/WX    TMP DP  RH WIND       PRES   REMARKS
JACKSON        CLEAR     65  51  60 CALM      30.17R
LONDON         PTCLDY    64  54  69 CALM      30.18S
SOMERSET*      PTCLDY    61  54  77 CALM      30.19R
MONTICELLO*    PTCLDY    60  57  89 CALM      30.21R
WILLIAMSBURG*  CLEAR     61  57  88 CALM      30.19S
MIDDLESBORO*   CLEAR     61  52  71 CALM      30.21S
HARLAN APT*    CLEAR     57  52  82 CALM      30.21S
PIKE CO APT*     N/A     67  49  52 CALM      30.18R
BIG SANDY APT* MOCLDY    68  51  52 CALM      30.16S
MOREHEAD APT*  PTCLDY    68  50  52 CALM      30.17R HAZE
$$

KYZ035-036-041-042-044-050-067-078-099-260400
...CENTRAL KENTUCKY...

CITY           SKY/WX    TMP DP  RH WIND       PRES   REMARKS
MT STERLING*   CLEAR     59  54  82 W5        30.17S
FLEMING/MASON* CLEAR     65  49  55 W5        30.16R
DANVILLE*      PTCLDY    63  52  67 CALM      30.19R
LEXINGTON      MOCLDY    67  45  45 W5        30.16R
FRANKFORT      CLEAR     62  50  64 CALM      30.14R
LOUISVILLE     PTCLDY    70  48  45 W6        30.15R
LEBANON*         N/A    N/A N/A N/A MISG        N/A
GLASGOW*       CLEAR     63  58  85 CALM      30.17S
BOWLING GREEN  CLEAR     68  57  68 CALM      30.17R
$$

KYZ091>093-OHZ055-061-077-WVZ005-015-034-035-042-260400
...SOUTHERN OHIO/WEST VIRGINIA...

CITY           SKY/WX    TMP DP  RH WIND       PRES   REMARKS
COVINGTON      PTCLDY    64  49  57 W5        30.13R
COLUMBUS       PTCLDY    64  48  56 W5        30.11R
DAYTON         MOCLDY    62  50  64 W5        30.13R
WILMINGTON     CLOUDY    61  52  72 CALM      30.13R
HUNTINGTON     MOCLDY    67  54  63 CALM      30.12R
CHARLESTON     PTCLDY    65  54  67 S5        30.12S
PINEVILLE*     PTCLDY    55  52  89 MISG      30.23S
BECKLEY        CLEAR     58  46  64 S3        30.20R
BLUEFIELD      CLEAR     58  44  60 W5        30.23R
LOGAN CO APT*    N/A     63  50  63 CALM      30.17R
$$

VAZ002-007-008-TNZ017-027-036-066-071-260400
...SOUTHWEST VIRGINIA/EAST TENNESSEE...

CITY           SKY/WX    TMP DP  RH WIND       PRES   REMARKS
WISE*          CLEAR     55  46  71 CALM      30.25R
JONESVILLE*      N/A     57  54  88 CALM      30.22S
ABINGDON*      CLEAR     60  52  73 CALM      30.22R
BRISTOL        CLEAR     61  52  72 CALM      30.20R
MORRISTOWN*    CLEAR     64  54  68 CALM      30.19S
SEVIERVILLE*   CLEAR     61  52  72 CALM      30.19S
KNOXVILLE      CLEAR     66  52  60 CALM      30.19R
LAFOLLETTE*      N/A     61  55  82 CALM      30.24R
OAK RIDGE      CLEAR     65  52  62 CALM      30.21R
CROSSVILLE     CLEAR     59  50  72 W3        30.24R
NASHVILLE      CLEAR     69  53  56 CALM      30.19R
$$

...KEY TO REMARKS...
VSB - VISIBILITY IN MILES
WCI - WIND CHILL INDEX
HX  - HEAT INDEX

$$




USA.gov is the U.S. government's official web portal to all federal, state and local government web resources and services.